RH
34 39 42 49 52 48 44 46 52 88 97 99 99 98 97 95 92 86 55 42 44 49 58 62 60 62 65 63 59 65 66 73 79 83 82 77 69 56 54 54 48 42 41
38 39 50 56 58 58 52 47 54 74 96 95 97 95 93 92 90 88 78 58 47 56 58 62 64 63 64 60 62 65 73 78 77 80 80 80 68 63 51 50 39 42 43
42 44 53 64 65 63 65 53 53 87 96 94 94 95 94 93 94 92 88 81 69 61 63 64 66 68 66 69 69 71 68 71 74 68 74 77 76 73 64 50 43 42 49
40 44 64 66 69 65 65 66 58 95 93 91 92 91 90 91 88 87 89 86 80 74 69 68 68 68 66 68 70 68 74 74 76 66 54 63 68 74 77 67 51 50 46
38 57 74 71 67 70 71 69 72 95 93 91 89 89 90 87 89 88 87 88 85 79 74 71 70 72 69 69 67 72 74 73 75 72 70 64 63 56 71 80 70 62 60
38 69 76 72 74 80 67 75 94 94 93 91 91 88 89 90 90 86 86 85 85 83 78 73 72 73 71 70 72 72 70 72 70 71 69 68 65 58 60 64 68 63 55
46 82 86 84 80 84 90 92 93 98 94 92 90 89 88 88 84 81 80 84 83 80 75 70 69 69 72 72 72 73 71 69 70 69 72 71 70 62 61 60 55 54 52
51 86 80 86 89 86 96 96 96 98 97 95 94 90 88 90 85 77 73 72 78 75 71 69 67 66 66 68 69 70 71 67 71 72 72 71 70 66 66 62 62 62 59
61 80 83 88 91 87 90 96 96 96 94 94 94 93 90 89 89 88 84 77 76 73 72 68 64 62 62 62 60 64 67 68 71 71 70 68 68 68 63 58 58 57 52
62 61 85 89 89 88 90 95 93 94 93 92 92 92 92 89 84 82 82 79 78 74 71 64 61 59 59 60 61 65 65 65 70 68 62 61 60 62 63 64 60 62 65
63 79 86 87 89 90 92 96 96 94 93 90 89 91 91 89 91 87 85 84 83 76 67 61 63 64 67 69 67 65 62 61 57 56 55 55 56 64 67 70 67 70 73
76 80 81 84 85 89 92 96 97 95 91 89 92 94 91 92 93 86 91 83 73 63 60 62 65 69 73 76 77 73 70 67 67 60 59 58 48 64 63 66 64 67 70
84 79 80 82 84 86 88 92 97 96 94 92 94 95 93 94 97 91 80 70 65 60 64 68 75 78 74 68 62 58 55 55 56 53 55 57 58 63 65 66 72 75 65
77 84 86 87 87 86 89 89 96 97 96 95 95 95 94 93 89 87 82 73 71 74 78 76 77 74 70 66 59 54 53 51 55 58 61 64 66 66 67 63 70 70 78
85 90 91 91 89 90 90 89 92 98 97 96 96 96 92 95 93 92 89 85 81 81 80 77 74 70 65 58 52 48 55 57 60 63 64 71 68 67 71 74 82 80 81
86 93 91 92 91 92 92 92 95 99 97 97 98 98 98 96 96 94 92 92 91 87 84 85 77 62 48 61 56 52 53 55 59 66 69 70 67 67 64 63 64 68 80
78 83 85 93 94 95 95 97 97 96 96 98 98 97 95 96 96 94 94 94 93 90 85 76 66 57 55 58 57 57 52 58 64 69 68 53 56 69 72 65 65 66 62
71 78 84 92 93 94 95 96 95 96 95 96 96 95 95 96 96 95 94 93 86 79 73 68 66 65 59 61 60 64 65 67 70 70 64 64 69 75 70 70 70 65 63
75 85 75 85 89 92 92 92 95 96 95 97 96 95 94 95 94 93 90 85 84 82 75 67 70 70 67 65 64 65 69 65 66 66 70 65 70 64 63 72 74 70 71
76 84 75 81 86 88 87 91 94 94 97 96 96 93 91 91 91 89 87 80 74 68 69 73 75 73 70 64 62 63 64 69 65 68 71 64 69 64 64 76 82 84 83
71 78 87 92 85 82 86 94 95 97 95 92 91 91 87 85 85 87 82 73 70 74 76 80 80 78 72 65 60 58 64 64 63 68 72 75 65 64 65 65 81 80 78
66 75 86 89 83 80 81 89 95 91 88 88 89 88 86 80 78 82 80 75 76 79 79 76 78 77 75 68 64 61 64 58 68 72 75 76 64 64 64 73 68 68 68
63 68 78 83 82 79 76 80 76 73 80 82 83 84 83 77 72 75 79 80 77 77 72 74 79 84 87 88 68 67 67 63 75 81 70 62 58 59 66 63 64 64 84
62 66 74 76 80 77 77 70 55 52 51 63 63 62 66 67 63 60 61 65 66 67 65 70 76 80 84 85 82 81 79 66 76 71 74 65 63 61 67 67 71 75 81
60 64 67 72 72 69 66 58 46 44 48 48 48 49 49 47 52 55 58 60 55 52 59 68 67 74 80 77 72 73 74 81 77 76 78 80 84 90 87 80 80 83 70
62 65 66 67 66 68 61 53 49 45 45 47 51 53 53 54 59 67 75 69 68 68 68 65 65 68 62 64 67 70 69 69 68 85 93 92 93 93 93 92 86 75 71
Wind_Speed
7 8 7 8 7 6 7 7 7 6 7 4 5 5 6 12 4 4 4 8 6 3 6 5 6 6 5 6 7 5 7 3 5 5 5 4 4 5 5 5 5 5 4
8 7 7 9 11 8 7 8 8 7 8 7 4 5 10 8 7 5 5 3 10 4 5 7 5 6 5 6 5 6 5 4 4 4 4 3 4 3 3 4 5 6 4
8 7 7 8 10 11 9 7 8 9 11 13 10 9 9 8 9 5 7 4 6 2 3 6 6 6 6 5 5 6 9 8 3 5 4 4 4 4 1 3 4 6 3
7 6 6 11 11 12 11 8 7 13 14 17 15 19 14 14 10 11 9 6 7 6 5 6 6 6 5 7 5 6 5 5 4 2 2 4 4 4 2 0 3 4 5
6 6 7 10 13 10 10 7 5 13 16 15 16 14 12 9 10 10 13 12 8 7 4 5 6 7 6 6 7 7 7 4 4 3 2 2 3 3 4 3 2 0 2
7 6 6 11 11 12 8 6 10 12 14 14 16 16 17 16 14 13 11 9 10 8 6 7 6 6 8 9 7 6 8 6 5 3 3 2 3 2 2 4 3 3 3
7 6 8 11 12 14 6 5 9 8 10 12 14 15 16 20 21 19 14 15 11 11 10 11 10 8 7 7 7 6 7 6 7 6 4 4 4 3 2 4 2 2 1
7 6 9 10 10 11 1 6 7 8 8 10 11 11 14 10 11 14 12 11 9 12 12 10 7 7 9 8 8 7 7 8 7 9 7 6 4 4 3 3 3 1 1
7 7 8 9 10 9 8 6 8 9 9 10 9 11 12 13 13 13 11 9 12 11 13 13 11 8 10 9 10 8 9 9 7 8 7 6 4 4 4 5 3 3 2
8 10 5 8 9 9 8 5 6 9 10 11 11 11 11 12 12 11 13 13 11 12 14 12 12 12 10 10 12 10 10 11 6 6 7 6 5 4 5 5 3 4 2
9 9 6 6 8 9 7 2 5 8 9 10 10 11 10 11 12 11 9 8 10 12 13 13 12 12 10 9 12 10 10 11 9 6 7 8 6 5 4 4 4 3 2
6 8 8 6 7 8 10 4 3 6 9 9 9 8 11 11 10 10 11 12 12 13 14 14 14 13 11 10 11 10 9 11 9 7 6 7 5 5 4 4 3 2 4
7 8 9 10 9 9 9 10 3 4 7 9 11 11 11 10 9 13 14 13 14 14 12 13 14 12 12 12 11 11 10 10 8 5 7 6 5 5 3 3 3 3 3
5 6 8 9 9 8 9 9 5 5 7 8 10 12 14 13 13 14 14 13 13 15 12 12 13 13 12 12 11 11 11 10 9 8 7 6 6 5 4 4 4 3 3
4 5 7 8 8 8 8 9 9 5 7 9 9 10 14 16 16 16 15 13 13 13 14 15 13 11 10 8 10 10 9 10 9 8 8 7 7 9 7 4 5 4 3
2 4 7 9 9 9 8 9 9 4 6 8 8 9 12 14 18 16 16 15 15 13 13 13 12 9 7 17 18 12 10 9 8 7 7 5 6 6 6 5 3 1 1
3 4 8 7 8 8 8 6 8 7 10 11 12 13 14 14 15 17 18 15 14 14 13 12 10 10 11 18 19 17 8 8 7 6 5 5 4 3 1 4 4 4 5
4 5 4 5 7 6 6 6 7 8 10 11 12 13 15 14 14 16 17 18 12 15 12 11 12 11 10 17 18 18 9 7 6 6 6 5 4 2 4 4 3 1 3
6 4 4 3 5 6 5 7 9 9 9 9 11 11 16 16 16 14 16 16 14 13 11 11 11 11 10 17 16 12 7 7 6 5 5 4 5 4 5 3 3 2 4
5 4 4 5 5 6 5 9 9 10 10 9 10 10 12 18 18 14 15 11 13 13 11 11 10 15 9 14 15 10 6 6 4 4 5 6 5 5 5 3 4 4 3
5 4 6 5 5 6 7 10 10 11 10 12 13 13 12 17 16 13 12 13 14 13 12 11 9 9 7 8 12 10 4 4 4 4 3 3 5 4 5 5 2 3 4
4 6 5 5 6 6 8 10 10 9 12 14 14 14 13 12 12 15 12 12 13 12 11 10 8 6 6 10 10 10 8 7 4 4 3 4 5 5 4 5 6 5 5
4 4 5 4 5 5 6 12 8 10 11 14 13 13 12 11 12 13 12 9 9 9 8 7 7 6 4 4 12 11 9 8 5 4 5 6 3 3 3 3 4 6 4
4 4 6 5 4 6 6 8 9 9 11 12 11 11 12 12 10 8 7 7 7 7 7 6 6 5 4 4 4 4 4 7 5 6 4 2 2 1 0 3 4 2 1
5 5 6 5 6 6 7 7 9 10 11 11 10 10 9 9 9 6 5 5 4 7 8 6 7 7 5 4 8 6 4 3 5 4 1 1 2 2 2 3 4 3 3
5 6 6 6 8 7 6 6 6 10 12 10 8 8 8 7 7 8 8 13 11 14 13 13 8 4 9 13 12 11 9 8 5 2 2 2 2 2 2 2 3 3 5
Wind_Direction
5 358 343 321 298 276 271 259 217 195 156 120 143 128 137 118 81 31 297 86 103 140 123 122 132 133 140 148 141 127 124 95 113 93 67 46 80 108 120 121 120 118 117
352 332 347 346 328 301 260 243 231 189 147 145 111 115 136 116 108 134 81 60 107 136 128 129 140 139 134 136 129 124 114 98 96 124 97 102 360 20 133 126 131 129 119
333 321 347 334 316 300 279 242 216 159 143 123 113 109 105 110 124 128 113 136 109 80 124 136 138 137 125 130 120 122 129 144 71 114 154 142 176 137 3 119 128 143 143
307 313 358 326 311 298 276 257 222 154 145 141 141 148 152 154 160 166 146 149 120 121 171 142 124 118 121 125 127 129 120 118 133 99 60 85 133 163 149 217 163 164 146
310 351 353 314 306 302 273 243 188 158 150 150 154 158 158 151 155 158 141 145 133 123 203 132 133 127 127 125 127 132 135 133 144 137 147 94 76 78 138 160 172 195 185
339 27 342 321 315 311 281 242 150 162 152 154 161 165 162 154 154 160 154 156 144 141 171 128 106 108 128 130 136 136 135 135 118 110 96 146 144 136 134 117 120 166 212
350 18 344 335 323 328 2 85 129 137 155 165 171 168 167 165 162 163 163 158 162 144 152 138 139 146 133 130 124 116 107 113 111 107 95 72 60 95 94 99 104 141 128
343 17 350 329 324 327 24 100 118 140 154 171 170 169 168 173 165 169 163 160 155 144 144 127 123 121 116 116 111 103 101 100 102 101 94 98 74 74 78 100 125 86 264
342 12 339 335 328 335 322 150 151 151 161 157 153 156 163 169 167 162 161 155 143 147 136 128 130 121 116 119 105 100 99 90 85 87 88 88 69 58 69 82 77 126 142
349 336 333 335 334 329 333 174 166 164 162 164 164 166 163 165 164 160 155 146 150 140 127 129 125 116 111 109 107 107 104 104 102 101 107 91 75 62 61 70 69 65 115
342 346 335 339 341 336 333 284 170 162 161 165 162 159 155 150 148 139 133 138 120 119 113 117 106 105 106 103 107 106 107 103 101 92 98 93 94 78 81 78 61 65 76
347 351 343 342 353 348 341 303 186 170 165 153 144 145 142 139 140 138 116 113 115 109 114 112 108 110 107 97 92 92 88 98 96 89 97 91 96 89 79 79 92 79 67
2 350 350 346 345 348 341 334 160 156 156 152 151 144 135 129 123 113 113 118 118 114 105 112 111 107 102 102 99 108 111 100 98 105 93 97 104 91 86 86 72 58 34
355 340 347 341 336 340 338 330 300 150 146 147 155 156 150 138 127 115 108 110 114 113 111 108 106 106 111 106 113 117 116 113 109 99 86 76 74 77 77 88 89 77 21
358 351 337 334 337 339 337 331 325 149 147 153 158 155 153 126 121 113 111 109 106 106 111 110 102 110 115 127 135 119 115 112 109 105 95 86 85 81 66 67 41 49 26
75 2 346 341 343 343 339 333 321 145 136 143 136 113 107 123 121 116 113 113 107 106 108 105 111 124 129 132 126 123 118 111 103 102 95 100 93 94 84 71 57 116 131
357 61 353 348 343 346 347 351 351 88 94 94 99 108 114 114 118 123 121 113 115 114 110 115 126 123 120 126 121 115 104 104 107 111 125 119 100 94 30 230 226 248 226
350 54 23 359 352 350 11 28 38 48 98 107 111 116 111 111 115 123 121 116 127 122 123 125 114 111 116 121 118 111 101 98 100 101 94 104 127 96 46 357 344 17 316
77 67 41 45 14 7 20 61 69 71 78 93 107 117 122 120 116 114 117 124 123 117 121 117 118 115 111 118 120 112 107 102 92 95 86 76 92 61 32 10 337 19 13
68 71 61 81 48 31 51 73 78 86 83 89 94 105 117 118 110 119 118 121 117 115 117 109 106 117 119 128 125 120 113 117 127 130 93 92 80 46 27 33 358 26 8
93 84 66 68 76 76 78 79 83 86 98 96 94 92 102 105 106 107 112 110 106 107 107 107 109 114 125 123 112 118 102 138 137 134 138 119 66 38 22 11 21 1 6
72 94 89 63 92 101 99 89 80 96 104 102 102 100 101 102 106 105 101 102 109 113 118 118 116 112 110 121 120 123 113 107 127 132 103 100 59 33 20 33 4 349 3
132 110 121 95 105 103 117 104 103 105 107 106 103 104 108 106 99 105 112 112 116 121 123 123 121 128 127 129 134 120 112 101 84 101 88 68 43 8 26 21 7 23 35
150 129 134 136 113 127 108 114 126 121 110 104 108 113 111 112 117 123 127 128 131 126 127 132 132 133 129 128 114 113 106 118 108 106 102 129 184 201 51 37 29 37 53
172 156 165 162 152 126 132 152 140 126 119 117 121 121 121 120 111 100 111 113 122 147 148 144 147 149 147 166 160 160 157 119 120 119 131 126 76 48 31 30 20 8 355
169 164 179 149 137 119 130 143 131 137 133 128 125 125 120 113 110 108 97 83 105 120 123 126 130 143 154 150 135 122 118 116 106 86 93 54 58 47 40 19 350 343 341